Regional Weather Roundup
Issued by NWS

Home | Current Version | Previous Version | Graphics & Text | Print | Product List | Glossary Off
Versions: 1 2 3 4 5 6 7 8 9 10 11 12 13 14 15 16 17 18 19 20 21 22 23 24 25 26 27 28 29 30 31 32 33 34 35 36 37 38 39 40 41 42 43 44 45 46 47 48 49 50

000
ASUS43 KTOP 180759
RWRKS

WEATHER ROUNDUP FOR KANSAS
NATIONAL WEATHER SERVICE GOODLAND KS
300 AM CDT FRI APR 18 2014

NOTE:  "FAIR" INDICATES FEW OR NO CLOUDS BELOW 12,000 FEET WITH NO
SIGNIFICANT WEATHER AND/OR OBSTRUCTIONS TO VISIBILITY.

KSZ001>006-013>018-027>032-041>047-180900-
NORTHWEST KANSAS

CITY           SKY/WX    TMP DP  RH WIND       PRES   REMARKS
GOODLAND       CLEAR     38  35  89 S17       30.12F WCI  28
HAYS           CLEAR     36  30  80 S5        30.22S
HILL CITY      CLEAR     39  36  89 S6        30.18F
RUSSELL        CLEAR     39  34  82 S12       30.21F WCI  32
$$

KSZ061>065-074>080-084>089-180900-
SOUTHWEST KANSAS

CITY           SKY/WX    TMP DP  RH WIND       PRES   REMARKS
DODGE CITY     CLOUDY    40  37  89 S8        30.21F
ELKHART          N/A     37  27  67 SW12        N/A  WCI  29
GARDEN CITY    CLEAR     38  36  92 S10       30.19F WCI  31
GREAT BEND     CLEAR     36  30  80 S5        30.23F
LIBERAL        CLOUDY    43  37  81 SE8       30.22F
$$

KSZ066>073-081>083-090>101-180900-
SOUTHEAST KANSAS

CITY           SKY/WX    TMP DP  RH WIND       PRES   REMARKS
CHANUTE        CLEAR     34  32  92 CALM      30.28R FOG
COFFEYVILLE    CLEAR     37  34  89 NW6       30.27F FOG
HUTCHINSON     CLEAR     33  31  92 CALM      30.25F FOG
NEWTON         CLEAR     37  28  70 SW3       30.28F
PARSONS        CLEAR     34  32  92 CALM      30.28S FOG
WICHITA INTL   PTCLDY    37  33  85 W3        30.26F FOG
WICHITA JABRA  CLEAR     36  32  85 CALM      30.26S FOG
WICHITA MCCONL CLEAR     39  39 100 CALM      30.27S
WINFIELD       CLEAR     32  29  88 CALM      30.27F FOG
$$

KSZ007>012-019>026-033>040-048>060-102>105-180900-
NORTHEAST KANSAS

CITY           SKY/WX    TMP DP  RH WIND       PRES   REMARKS
CONCORDIA      CLEAR     40  32  73 S16       30.23F WCI  31
EMPORIA        CLEAR     34  32  92 CALM      30.26F FOG
LAWRENCE       CLEAR     31  29  92 CALM      30.28F FOG
MANHATTAN      CLEAR     34  30  85 CALM      30.27F FOG
OLATHE IND     CLEAR     35  32  88 NW3       30.28F FOG
OLATHE EXE     CLEAR     36  33  89 CALM      30.26F FOG
SALINA         CLEAR     35  29  78 S7        30.26F HAZE
TOPEKA BILLARD CLEAR     36  31  82 CALM      30.28F HAZE
TOPEKA FORBES  CLEAR     33  30  88 CALM      30.27S FOG
$$



USA.gov is the U.S. government's official web portal to all federal, state and local government web resources and services.